Other Public Products
Issued by NWS Grand Forks, ND

Home | Current Version | Previous Version | Graphics & Text | Print | Product List | Glossary On
Versions: 1 2 3 4 5 6 7 8 9 10 11 12 13 14 15 16 17 18 19 20 21 22 23 24 25 26 27 28 29 30 31 32 33 34 35 36 37 38 39 40 41 42 43 44 45 46 47 48 49 50
000
FPUS83 KFGF 262110
OPUFGF
PRAIRIE TO PINES WEATHER ROUNDUP
NATIONAL WEATHER SERVICE EASTERN NORTH DAKOTA/GRAND FORKS ND
400 PM CDT FRI MAY 26 2017

 **SATELLITE DATA USED TO AUGMENT SKY COVER AT AUTOMATED STATIONS**
 *****  WEATHER ACROSS EASTERN NORTH DAKOTA  *****

CITY           SKY/WX    TMP DP  RH WIND       PRES   REMARKS
GRAND FORKS    PTSUNNY   70  46  42 W17       29.69S
GRAND FORKS AF PTSUNNY   65  44  46 W8        29.70S
GRAND CITY NWS NOT AVBL
BUXTON         NOT AVBL
DEVILS LAKE    PTSUNNY   65  45  48 W24       29.70S
FARGO          FAIR      69  43  38 W17G24    29.72R
WAHPETON ARPT  FAIR      70  41  35 NW17      29.74S
$$

 *****  WEATHER ACROSS CENTRAL AND WESTERN NORTH DAKOTA  *****

CITY           SKY/WX    TMP DP  RH WIND       PRES   REMARKS
JAMESTOWN      CLOUDY    63  43  48 W16G23    29.75S
BISMARCK       CLOUDY    66  41  40 NW12      29.79R
MINOT          CLOUDY    68  41  37 W20G28    29.72S
MINOT AFB      PTSUNNY   64  41  43 NW20G25   29.71R
GARRISON         N/A     62  38  40 NW20      29.75S
WILLISTON      CLOUDY    68  33  27 NW21G32   29.77S
DICKINSON      PTSUNNY   67  32  27 W20G30    29.80S
HETTINGER      PTSUNNY   67  36  31 NW18G28   29.85S
$$

 *****  OTHER OBSERVATIONS NORTHEAST NORTH DAKOTA  *****

CITY           SKY/WX    TMP DP  RH WIND       PRES   REMARKS
WALHALLA       NOT AVBL
LANGDON        CLOUDY    64  46  52 W23       29.67S
CAVALIER       MOCLDY    66  46  48 W13G18    29.64S
GRAFTON        MOCLDY    66  45  45 W17G23    29.68S
CANDO          NOT AVBL
FORT TOTTEN      N/A     66  46  48 NW7       29.95S
ROLLA          CLOUDY    57  45  62 SW18      29.70R
RUGBY          NOT AVBL
 ***** THE ABOVE OBSERVATIONS ARE NON NWS ARE NOT QUALITY
        CONTROLLED AND MAY MIS-REPORT RAIN FOR SNOW...
$$

 *****  OTHER OBSERVATIONS SOUTHEAST NORTH DAKOTA *****

CITY           SKY/WX    TMP DP  RH WIND       PRES   REMARKS
COOPERSTOWN    MOCLDY    64  41  42 W14G24    29.73F
VALLEY CITY    CLOUDY    63  43  48 W13G21    29.77S
OAKES          NOT AVBL
GWINNER        PTCLDY    66  45  45 MISG      29.77S
SHEYENNE NWR     N/A     70  45  40 W12       29.95S
BUFFALO        NOT AVBL
WYNDMERE         N/A     70  43  37 W16         N/A
 ***** THE ABOVE OBSERVATIONS ARE NON NWS ARE NOT QUALITY
       CONTROLLED AND MAY MIS-REPORT RAIN FOR SNOW...
$$

  *****  WEATHER ACROSS NORTHERN MINNESOTA  *****

CITY           SKY/WX    TMP DP  RH WIND       PRES   REMARKS
FLAG ISLAND    FAIR      66  45  45 SW16      29.60S
WARROAD        FAIR      70  52  52 SW14G22   29.64R
ROSEAU         FAIR      68  50  52 SW12G22   29.64R
HALLOCK        PTSUNNY   66  43  42 W17G24    29.65S
THF RVR FALLS  FAIR      69  44  40 W17G25    29.68S
HALSTAD          N/A     68  45  43 W15         N/A
FOSSTON        FAIR      70  43  37 W13G26    29.70R
BAUDETTE       PTSUNNY   73  42  32 W14G21    29.62S
WASKISH        CLOUDY    72  48  43 W10       29.66S
CROOKSTON      FAIR      68  45  42 W21G28    29.69S
$$
  *****  WEATHER ACROSS CENTRAL AND WEST MINNESOTA  *****

CITY           SKY/WX    TMP DP  RH WIND       PRES   REMARKS
BEMIDJI        PTSUNNY   71  45  38 W13G20    29.68S
PARK RAPIDS    LGT RAIN  74  45  35 W17       29.70S
WADENA         FAIR      72  46  40 W16G24    29.72S
DETROIT LAKES  FAIR      70  43  37 W13G22    29.73S
MOORHEAD       FAIR      72  39  30 W13G20    29.73R
FERGUS FALLS   FAIR      70  46  43 W13G20    29.71F
ELBOW LAKE     FAIR      70  45  39 NW14G25   29.74F
MORRIS MN      FAIR      73  45  35 W14       29.74F
STAPLES        PTSUNNY   72  43  35 W15       29.73R
WHEATON        FAIR      72  39  30 W13G28    29.77R
$$
  *****  WEATHER ELSEWHERE ACROSS MINNESOTA  *****

CITY           SKY/WX    TMP DP  RH WIND       PRES   REMARKS
DULUTH         FAIR      65  53  65 SE13      29.70S
INTRNTL FALLS  PTSUNNY   74  43  32 W13G21    29.62S
ELY            FAIR      73  52  46 S16G22    29.67S
CLOQUET        FAIR      68  50  52 E8        29.68F
BRAINERD       FAIR      74  45  35 W15G22    29.70R
HIBBING        PTSUNNY   64  55  72 NW13      29.68R
ALEXANDRIA     PTSUNNY   72  45  37 W14       29.75S
SAINT CLOUD    FAIR      75  51  43 W16       29.72R
MINNEAPOLIS    PTSUNNY   78  54  43 SW8       29.72F
$$

  *****  WEATHER ACROSS SOUTH DAKOTA  *****

CITY           SKY/WX    TMP DP  RH WIND       PRES   REMARKS
SIOUX FALLS    FAIR      73  47  39 NW13      29.82S
BROOKINGS      FAIR      70  45  40 W14G21    29.81
WATERTOWN      FAIR      70  43  37 W18G25    29.78S
HURON          FAIR      73  41  31 W17G31    29.80S
SISSETON         N/A     71  44  37 NW16G25   29.76R
ABERDEEN       FAIR      71  40  32 NW16G24   29.79S
MITCHELL       FAIR      76  39  26 NW18G24   29.83S
PIERRE         FAIR      71  36  27 NW16G25   29.83S
MOBRIDGE       FAIR      69  38  32 NW17      29.78F
RAPID CITY     CLOUDY    63  36  36 N6        29.90R
$$

  *****  SOME WEATHER IN NEARBY STATES *****

CITY           SKY/WX    TMP DP  RH WIND       PRES   REMARKS
GLASGOW MT     FAIR      68  28  22 W15       29.82R
GREAT FALLS MT CLOUDY    60  34  37 SE5       29.91F
CHEYENNE WY    LGT RAIN  54  44  69 S9        29.92R
SCOTTSBLUFF NE FAIR      64  40  41 E8        29.88F
OMAHA NE       FAIR      80  51  36 NW14      29.80R
DES MOINES IA  FAIR      81  58  45 N7        29.75S
DAVENPORT IA   CLOUDY    67  61  81 NE9       29.77S
CHICAGO IL     RAIN      64  54  69 E12       29.80F
EAU CLAIRE WI  CLOUDY    71  55  56 S14G23    29.76S
LA CROSSE WI   FAIR      72  57  59 S12       29.79S
$$

  *****  SOME NATIONAL WEATHER *****

CITY           SKY/WX    TMP DP  RH WIND       PRES   REMARKS
LA GUARDIA NY  PTSUNNY   74  52  46 W15       29.62R
RALEIGH NC     FAIR      80  57  45 W8G17     29.90F
ATLANTA GA     FAIR      83  59  44 W9        30.00F
NEW ORLEANS LA FAIR      84  65  52 S14       29.99F
OKLAHOMA CITY  PTSUNNY   88  65  46 N6        29.75F HX  90
ALBUQUERQUE NM FAIR      81  13   7 NW5       29.94F
SALT LAKE CITY FAIR      67  33  28 NW12G21   29.89S
LOS ANGELES CA PTSUNNY   67  54  63 SW12      30.00S
BOISE ID       PTSUNNY   67  39  35 NW12      29.91R
SEATTLE WA     FAIR      75  51  43 NW8G17    29.97S
$$

*** WEATHER ACROSS MANITOBA...SASKATCHEWAN AND ONTARIO ***
                ***ONTARIO***

CITY           SKY/WX    TMP DP  RH WIND       PRES   REMARKS
GERALDTON      PTSUNNY   73  50  43 S14       29.75F
THUNDER BAY    CLOUDY    57  48  72 E13       29.77F
SIOUX LOOKOUT  CLOUDY    66  54  63 SE6       29.63F THUNDER
TORONTO        CLOUDY    64  55  72 W9        29.76R
BIG TROUT LK   LGT RAIN  57  48  72 S15G21    29.66
PICKLE LAKE    CLOUDY    61  52  72 S9        29.68F
DRYDEN         RAIN      55  54  94 NE5       29.63F
KENORA         NOT AVBL
$$
                *** MANITOBA***

CITY           SKY/WX    TMP DP  RH WIND       PRES   REMARKS
BRANDON        PTSUNNY   63  46  55 W20G26    29.63S
DAUPHIN        PTSUNNY   64  48  55 W22G30    29.55R
ISLAND LAKE    NOT AVBL
PILOT MOUND      N/A     59  46  63 W9G17       N/A
THE PAS        CLOUDY    55  52  88 NW14      29.43R
THOMPSON       LGT RAIN  59  55  88 E5        29.44R
WINNIPEG       PTSUNNY   64  46  52 SW15G23   29.60S
LYNN LAKE      RAIN      52  50  93 NE8       29.53S
CHURCHILL      PTSUNNY   39  36  87 NE18      29.68S
GILLAM         PTSUNNY   66  48  52 SE6       29.52F
$$
                ***SASKATCHEWAN***

CITY           SKY/WX    TMP DP  RH WIND       PRES   REMARKS
ESTEVAN        PTSUNNY   63  36  36 NW20G28   29.70S
KINDERSLEY     PTSUNNY   66  32  28 NW16G26   29.72F
LLOYDMINSTER   PTSUNNY   66  41  39 NW13G24   29.70F
PRINCE ALBERT  PTSUNNY   61  39  44 N10G22    29.61R
REGINA         PTSUNNY   66  36  32 NW29G36   29.67S
YORKTON          N/A     57  46  67 W18G25    29.61F



USA.gov is the U.S. government's official web portal to all federal, state and local government web resources and services.